FW4287 Weather Reports


Display with metric or nautical units.
time (UTC)temp
F
wind
direction
speed
MPH
gust
MPH
rain 1hr
in
rain 24hr
in
rain mn
in
humidity
%
barometer
mb
20260506201540 70 198 8.0 16.0 0.00 0.00 0.00 51 1019.1
20260506194532 69 209 8.0 13.0 0.00 0.00 0.00 53 1019.1
20260506193029 69 169 9.0 18.0 0.00 0.00 0.00 55 1019.2
20260506184531 68 227 6.0 14.0 0.00 0.00 0.00 57 1019.3
20260506183028 67 199 7.0 13.0 0.00 0.00 0.00 59 1019.2
20260506180109 67 271 6.0 11.0 0.00 0.00 0.00 60 1019.3
20260506173028 65 233 9.0 14.0 0.00 0.00 0.00 61 1019.2
20260506170031 63 211 11.0 19.0 0.00 0.00 0.00 65 1019.3
20260506164604 62 212 11.0 19.0 0.00 0.00 0.00 66 1019.2
20260506163031 62 205 10.0 19.0 0.00 0.00 0.00 68 1019.8
20260506160030 61 196 11.0 17.0 0.00 0.00 0.00 69 1019.5
20260506154531 60 197 10.0 20.0 0.00 0.00 0.00 69 1019.4
20260506153029 60 214 11.0 21.0 0.00 0.00 0.00 70 1019.3
20260506151529 59 213 12.0 21.0 0.00 0.00 0.00 72 1019.1
20260506150029 58 197 9.0 18.0 0.00 0.00 0.00 73 1019.4
20260506144529 58 193 8.0 15.0 0.00 0.00 0.00 73 1019.4
20260506143104 57 197 9.0 19.0 0.00 0.00 0.00 75 1019.4
20260506141530 57 199 10.0 21.0 0.00 0.00 0.00 76 1019.3
20260506140032 56 191 10.0 19.0 0.00 0.00 0.00 77 1019.3
20260506134534 55 200 12.0 21.0 0.00 0.00 0.00 79 1019.1
20260506131538 54 191 7.0 13.0 0.00 0.00 0.00 81 1019.0
20260506130028 54 175 6.0 16.0 0.00 0.00 0.00 82 1018.9
20260506124526 53 173 5.0 19.0 0.00 0.00 0.00 82 1018.8
20260506121653 52 158 4.0 11.0 0.00 0.00 0.00 83 1018.5
20260506120108 53 155 4.0 10.0 0.00 0.00 0.00 83 1018.4
20260506114653 53 144 3.0 7.0 0.00 0.00 0.00 83 1018.3
20260506113028 53 142 6.0 11.0 0.00 0.00 0.00 83 1018.1
20260506104542 52 157 3.0 7.0 0.00 0.00 0.00 88 1017.7
20260506101531 49 144 2.0 7.0 0.00 0.00 0.00 94 1017.4
20260506100053 48 135 0.0 5.0 0.00 0.00 0.00 94 1017.4
20260506094532 48 135 0.0 4.0 0.00 0.00 0.00 95 1017.3
20260506093030 47 135 1.0 5.0 0.00 0.00 0.00 95 1017.2
20260506091528 47 135 0.0 2.0 0.00 0.00 0.00 96 1017.2
20260506090033 46 152 0.0 5.0 0.00 0.00 0.00 96 1017.1
20260506083028 46 214 0.0 4.0 0.00 0.00 0.00 96 1016.8
20260506081530 47 225 0.0 1.0 0.00 0.00 0.00 96 1016.8
20260506073032 46 207 0.0 4.0 0.00 0.00 0.00 95 1016.5
20260506071528 47 234 0.0 4.0 0.00 0.00 0.00 94 1016.4
20260506061646 48 270 0.0 0.0 0.00 0.00 0.00 92 1016.1
20260506044605 52 67 0.0 0.0 0.00 0.00 0.00 86 1015.4
20260506043029 53 67 0.0 2.0 0.00 0.00 0.00 83 1015.3
20260506041605 55 67 1.0 5.0 0.00 0.00 0.00 82 1015.2
20260506040033 55 33 2.0 6.0 0.00 0.00 0.00 80 1015.1
20260506034607 57 6 1.0 6.0 0.00 0.00 0.00 78 1014.8
20260506033031 59 14 8.0 12.0 0.00 0.00 0.00 73 1014.4
20260506030032 60 10 8.0 13.0 0.00 0.00 0.00 71 1014.2
20260506024530 62 3 8.0 14.0 0.00 0.00 0.00 69 1014.0
20260506021606 64 20 6.0 9.0 0.00 0.00 0.00 67 1013.9
20260506020030 64 11 8.0 11.0 0.00 0.00 0.00 66 1013.8
20260506014531 65 5 8.0 13.0 0.00 0.00 0.00 65 1013.8
20260506013032 66 2 8.0 11.0 0.00 0.00 0.00 64 1013.7
20260506011530 66 1 7.0 11.0 0.00 0.00 0.00 63 1013.6
20260506010031 67 358 8.0 13.0 0.00 0.00 0.00 61 1013.6
20260506004532 69 2 8.0 12.0 0.00 0.00 0.00 60 1013.5
20260506003103 69 356 6.0 10.0 0.00 0.00 0.00 60 1013.5
20260506001534 69 5 7.0 10.0 0.00 0.00 0.00 60 1013.5
20260506000030 69 7 6.0 11.0 0.00 0.00 0.00 60 1013.7
20260505234605 69 360 7.0 11.0 0.00 0.00 0.00 59 1013.8
20260505233032 69 13 7.0 11.0 0.00 0.00 0.00 60 1013.9
20260505231531 69 358 7.0 12.0 0.00 0.00 0.00 60 1013.9
20260505230031 69 354 8.0 12.0 0.00 0.00 0.00 60 1014.0
20260505224532 68 1 7.0 12.0 0.00 0.00 0.00 60 1014.1
20260505223029 68 356 8.0 11.0 0.00 0.00 0.00 61 1014.1
20260505221532 68 2 8.0 12.0 0.00 0.00 0.00 61 1014.3
20260505220030 68 4 9.0 13.0 0.00 0.00 0.00 61 1014.4
20260505214530 68 355 8.0 12.0 0.00 0.00 0.00 61 1014.5
20260505213029 68 354 7.0 12.0 0.00 0.00 0.00 61 1014.5
20260505211530 68 10 8.0 12.0 0.00 0.00 0.00 62 1014.5
20260505210034 67 1 6.0 12.0 0.00 0.00 0.00 62 1014.6
20260505204604 67 2 7.0 12.0 0.00 0.00 0.00 62 1014.7
20260505203032 67 353 6.0 11.0 0.00 0.00 0.00 63 1014.8